This demonstration page uses our WeatherBlox Daily Observations layout. Learn more.

Left ArrowRight Arrow

-33.8178, 151.00348

Hourly Observations for January 14, 2018

Temp ( °F °C ) Dew Point ( °F °C ) Humidity (%) Winds ( mph kmh ) Pressure ( in mb ) Visibility ( mi km ) Precip ( " mm )
12:00 am 00:00 Mostly Clear 70 21 64 18 83 83 NE 5 7 29.62 1003 30 48 N/A
12:30 am 00:30 Mostly Clear 70 21 64 18 83 83 Calm 29.62 1003 30 48 N/A
1:00 am 01:00 Mostly Clear 72 22 64 18 78 78 N 6 9 29.59 1002 30 48 N/A
1:30 am 01:30 Mostly Clear 70 21 64 18 83 83 WNW 6 9 29.59 1002 30 48 N/A
2:00 am 02:00 Mostly Clear 68 20 64 18 88 88 WNW 5 7 29.56 1001 30 48 N/A
2:30 am 02:30 Mostly Cloudy with Showers 68 20 64 18 88 88 Calm 29.56 1001 1 2 N/A
3:00 am 03:00 Mostly Cloudy 68 20 64 18 88 88 W 6 9 29.56 1001 30 48 N/A
3:30 am 03:30 Mostly Cloudy with Showers 68 20 64 18 88 88 WSW 14 22 29.56 1001 1 2 N/A
3:37 am 03:37 Mostly Cloudy with Showers 68 20 66 19 94 94 SSW 21 33 29.56 1001 30 48 N/A
3:42 am 03:42 Windy with Rain Showers Likely 66 19 64 18 94 94 SSW 24 39 29.56 1001 30 48 N/A
4:00 am 04:00 Mostly Cloudy with Nearby Thunderstorms 64 18 64 18 100 100 SSW 29 46 29.59 1002 30 48 N/A
4:30 am 04:30 Mostly Cloudy with Showers 64 18 64 18 100 100 S 29 46 29.59 1002 2 4 N/A
4:55 am 04:55 Windy with Rain Showers Likely 63 17 63 17 100 100 S 28 44 29.62 1003 30 48 N/A
5:00 am 05:00 Windy with Rain Showers Likely 63 17 61 16 94 94 S 26 43 29.62 1003 30 48 N/A
5:30 am 05:30 Mostly Cloudy with Showers 63 17 61 16 94 94 SSW 28 44 29.62 1003 2 4 N/A
6:00 am 06:00 Windy with Rain Showers Likely 61 16 59 15 94 94 SSW 26 43 29.65 1004 30 48 N/A
6:30 am 06:30 Windy with Rain Showers Likely 61 16 59 15 94 94 SSW 22 35 29.65 1004 30 48 N/A
7:00 am 07:00 Mostly Cloudy 59 15 57 14 94 94 SW 22 35 29.68 1005 30 48 N/A
7:30 am 07:30 Partly Cloudy 61 16 57 14 88 88 SW 21 33 29.71 1006 30 48 N/A
8:00 am 08:00 Mostly Cloudy 63 17 55 13 77 77 SW 21 33 29.71 1006 30 48 N/A
8:30 am 08:30 Mostly Cloudy 63 17 52 11 68 68 SW 23 37 29.74 1007 30 48 N/A
9:00 am 09:00 Mostly Cloudy 64 18 50 10 60 60 SSW 25 41 29.74 1007 30 48 N/A
9:30 am 09:30 Mostly Cloudy 66 19 54 12 64 64 SSW 26 43 29.74 1007 30 48 N/A
10:00 am 10:00 Partly Cloudy 68 20 55 13 64 64 SSW 29 46 29.74 1007 30 48 N/A
10:30 am 10:30 Mostly Sunny 68 20 55 13 64 64 SSW 31 50 29.77 1008 30 48 N/A
11:00 am 11:00 Mostly Sunny 68 20 54 12 60 60 SSW 33 54 29.77 1008 30 48 N/A
11:30 am 11:30 Mostly Sunny 68 20 54 12 60 60 SSW 31 50 29.77 1008 30 48 N/A
12:00 pm 12:00 Partly Cloudy 70 21 55 13 60 60 SSW 36 57 29.80 1009 30 48 N/A
12:30 pm 12:30 Mostly Sunny 70 21 55 13 60 60 SSW 36 57 29.80 1009 30 48 N/A
1:00 pm 13:00 Partly Cloudy 70 21 57 14 64 64 SSW 36 57 29.80 1009 30 48 N/A
1:30 pm 13:30 Mostly Sunny 70 21 55 13 60 60 SSW 36 57 29.80 1009 30 48 N/A
2:00 pm 14:00 Mostly Sunny 72 22 57 14 61 61 SSW 35 56 29.80 1009 30 48 N/A
2:30 pm 14:30 Mostly Sunny 70 21 57 14 64 64 SSW 35 56 29.83 1010 30 48 N/A
3:00 pm 15:00 Mostly Sunny 72 22 57 14 61 61 S 35 56 29.83 1010 30 48 N/A
3:33 pm 15:33 Partly Cloudy 72 22 59 15 65 65 S 32 52 29.83 1010 30 48 N/A
4:00 pm 16:00 Partly Cloudy 72 22 59 15 65 65 S 28 44 29.83 1010 30 48 N/A
4:04 pm 16:04 Partly Cloudy 70 21 57 14 64 64 S 29 46 29.83 1010 30 48 N/A
4:30 pm 16:30 Partly Cloudy 70 21 59 15 69 69 SSW 37 59 29.83 1010 30 48 N/A
5:00 pm 17:00 Partly Cloudy with Showers Nearby 70 21 59 15 69 69 SSW 38 61 29.85 1011 30 48 N/A
5:30 pm 17:30 Partly Cloudy with Showers Nearby 68 20 61 16 78 78 SSW 30 48 29.85 1011 30 48 N/A
6:00 pm 18:00 Partly Cloudy with Showers Nearby 68 20 59 15 73 73 SSW 26 43 29.85 1011 30 48 N/A
6:02 pm 18:02 Mostly Cloudy with Showers Nearby 68 20 61 16 78 78 SSW 26 43 29.85 1011 30 48 N/A
6:30 pm 18:30 Partly Cloudy with Showers Nearby 68 20 61 16 78 78 SSW 33 54 29.85 1011 30 48 N/A
6:32 pm 18:32 Windy with Rain Showers Likely 68 20 61 16 78 78 SSW 33 54 29.85 1011 30 48 N/A
7:00 pm 19:00 Mostly Sunny 68 20 61 16 78 78 SSW 29 46 29.85 1011 30 48 N/A
7:30 pm 19:30 Partly Cloudy 68 20 63 17 83 83 SSW 28 44 29.88 1012 30 48 N/A
7:56 pm 19:56 Partly Cloudy with Drizzle 66 19 61 16 83 83 SSW 29 46 29.91 1013 30 48 N/A
8:00 pm 20:00 Partly Cloudy with Drizzle 66 19 61 16 83 83 SSW 30 48 29.91 1013 30 48 N/A
8:17 pm 20:17 Mostly Cloudy with Drizzle 66 19 61 16 83 83 SSW 28 44 29.91 1013 30 48 N/A
8:30 pm 20:30 Partly Cloudy with Drizzle 64 18 61 16 88 88 SSW 31 50 29.91 1013 30 48 N/A
9:00 pm 21:00 Partly Cloudy with Showers Nearby 66 19 61 16 83 83 SSW 25 41 29.91 1013 30 48 N/A
9:30 pm 21:30 Partly Cloudy 64 18 61 16 88 88 SSW 24 39 29.94 1014 30 48 N/A
9:49 pm 21:49 Mostly Clear 66 19 63 17 88 88 SSW 22 35 29.94 1014 30 48 N/A
10:00 pm 22:00 Mostly Clear 68 20 61 16 78 78 S 26 43 29.94 1014 30 48 N/A
10:26 pm 22:26 Partly Cloudy with Showers Nearby 68 20 61 16 78 78 S 26 43 29.94 1014 30 48 N/A
10:30 pm 22:30 Partly Cloudy with Showers Nearby 68 20 61 16 78 78 S 28 44 29.94 1014 30 48 N/A
11:00 pm 23:00 Partly Cloudy 66 19 61 16 83 83 SSW 24 39 29.94 1014 30 48 N/A
11:30 pm 23:30 Mostly Clear 66 19 61 16 83 83 S 28 44 29.94 1014 30 48 N/A

Powered by Vaisala Xweather